Location: Bremen
(53.0793°N, 8.8017°E)
Time: 22:58:29
(UTC+02:00)

Vanguard 2 Rocket - Pass Details

Date: 17 April 2024
Orbit: 556 x 3304 km, 32.9° (Epoch: 20 May)

Event Time Altitude Azimuth Distance (km) Brightness Sun altitude
Rises 01:40:22 0° 245° (WSW) 7,101 11.2 -26.3°
Reaches altitude 10° 01:45:31 10° 238° (WSW) 6,211 10.8 -26.2°
Maximum altitude 02:02:43 38° 181° (S) 4,150 9.6 -25.8°
Drops below altitude 10° 02:16:54 10° 121° (ESE) 5,155 10.6 -25.4°
Sets 02:20:41 0° 114° (ESE) 5,828 10.9 -25.2°
